User: anonymous   Login
Location: Oakhurst
(33.6448°N, 111.9543°W)
Time: 18:59:59
(UTC+00:00)
Language:

CUBESAT XI-V - Orbit

View from above orbital plane
View from above orbital plane
View from above satellite
View from above satellite

Ground track
Ground track

The orbit data is extracted from the following two-line orbital elements,

1 28895U 05043F   21204.30982159  .00000145  00000-0  36626-4 0  9997
2 28895  98.0635 336.7740 0018154  97.4585 262.8682 14.63935016839251
Epoch (UTC): 23 July 2021 07:26:08
Eccentricity: 0.0018154
inclination: 98.0635°
perigee height: 667 km
apogee height: 693 km
right ascension of ascending node: 336.7740°
argument of perigee: 97.4585°
revolutions per day: 14.63935016
mean anomaly at epoch: 262.8682°
orbit number at epoch: 83925

The dashed part of the orbit path shows where the satellite is in the earth's shadow,  

DLR